START_TIME,STEP,MOV.,AL01,t_acc.,AL02,t_acc.,E37,t_acc.,H21,t_acc.
1979-07-14 21:00:34.560 ,0,0,3.,24.0,2.,24.0,9.,24.0,0.,24.0
1979-07-14 21:00:58.560 ,0,1,2.,24.0,0.,24.0,5.,24.0,0.,24.0
1979-07-14 21:01:22.560 ,0,0,0.,24.0,0.,24.0,9.,24.0,0.,24.0
1979-07-14 21:01:46.560 ,1,1,1.,24.0,0.,24.0,7.,24.0,0.,24.0
1979-07-14 21:02:10.560 ,1,0,1.,24.0,0.,24.0,3.,24.0,0.,24.0
1979-07-14 21:02:34.560 ,2,1,1.,24.0,1.,24.0,5.,24.0,0.,24.0
1979-07-14 21:02:58.560 ,2,0,0.,24.0,0.,24.0,3.,24.0,0.,24.0
1979-07-14 21:03:22.560 ,3,1,4.,24.0,1.,24.0,1.,24.0,0.,24.0
1979-07-14 21:03:46.560 ,3,0,2.,24.0,1.,24.0,1.,24.0,0.,24.0
1979-07-14 21:04:10.560 ,4,1,2.,24.0,0.,24.0,5.,24.0,0.,24.0
1979-07-14 21:04:34.560 ,4,0,1.,24.0,0.,24.0,3.,24.0,0.,24.0
1979-07-14 21:04:58.560 ,5,1,0.,24.0,0.,24.0,2.,24.0,0.,24.0
1979-07-14 21:05:22.560 ,5,0,0.,24.0,0.,24.0,3.,24.0,0.,24.0
1979-07-14 21:05:46.560 ,6,1,0.,24.0,1.,24.0,4.,24.0,0.,24.0
1979-07-14 21:06:10.560 ,6,0,0.,24.0,1.,24.0,4.,24.0,0.,24.0
1979-07-14 21:06:34.560 ,7,0,9.,24.0,2.,24.0,3.,24.0,0.,24.0
1979-07-14 21:06:58.560 ,7,0,23.,24.0,0.,24.0,7.,24.0,0.,24.0
1979-07-14 21:07:22.560 ,5,1,18.,24.0,0.,24.0,4.,24.0,0.,24.0
1979-07-14 21:07:46.560 ,1,1,0.,24.0,0.,24.0,5.,24.0,0.,24.0
1979-07-14 21:08:10.560 ,2,1,1.,24.0,0.,24.0,4.,24.0,0.,24.0
1979-07-14 21:08:34.560 ,6,1,0.,24.0,1.,24.0,3.,24.0,0.,24.0
1979-07-14 21:08:58.560 ,5,1,17.,24.0,0.,24.0,2.,24.0,0.,24.0
1979-07-14 21:09:22.560 ,1,1,1.,24.0,0.,24.0,2.,24.0,0.,24.0
1979-07-14 21:09:46.560 ,2,1,1.,24.0,0.,24.0,8.,24.0,0.,24.0
1979-07-14 21:10:10.560 ,6,1,4.,24.0,0.,24.0,3.,24.0,0.,24.0
1979-07-14 21:10:34.560 ,5,1,21.,24.0,0.,24.0,4.,24.0,0.,24.0
1979-07-14 21:10:58.560 ,1,1,1.,24.0,0.,24.0,8.,24.0,0.,24.0
1979-07-14 21:11:22.560 ,2,1,0.,24.0,0.,24.0,1.,24.0,0.,24.0
1979-07-14 21:11:46.560 ,6,1,1.,24.0,1.,24.0,4.,24.0,0.,24.0
1979-07-14 21:12:10.560 ,5,1,22.,24.0,0.,24.0,7.,24.0,0.,24.0
1979-07-14 21:12:34.560 ,1,1,1.,24.0,0.,24.0,5.,24.0,0.,24.0
1979-07-14 21:13:46.560 ,0,0,9.,24.0,0.,24.0,7.,24.0,0.,24.0
1979-07-14 21:14:10.560 ,1,1,0.,24.0,1.,24.0,7.,24.0,0.,24.0
1979-07-14 21:14:34.560 ,2,1,0.,24.0,0.,24.0,2.,24.0,0.,24.0
1979-07-14 21:14:58.560 ,6,1,2.,24.0,0.,24.0,2.,24.0,0.,24.0
1979-07-14 21:15:22.560 ,5,1,15.,24.0,0.,24.0,5.,24.0,0.,24.0
1979-07-14 21:15:46.560 ,1,1,1.,24.0,0.,24.0,3.,24.0,0.,24.0
1979-07-14 21:16:10.560 ,2,1,0.,24.0,0.,24.0,4.,24.0,0.,24.0
1979-07-14 21:16:34.560 ,6,1,0.,24.0,0.,24.0,5.,24.0,0.,24.0
1979-07-14 21:16:58.560 ,5,1,17.,24.0,0.,24.0,4.,24.0,0.,24.0
1979-07-14 21:17:22.560 ,1,1,2.,24.0,0.,24.0,4.,24.0,0.,24.0
1979-07-14 21:17:46.560 ,0,0,0.,24.0,0.,24.0,4.,24.0,0.,24.0
1979-07-14 21:18:10.560 ,0,0,2.,24.0,2.,24.0,3.,24.0,0.,24.0
1979-07-14 21:18:34.560 ,5,1,23.,24.0,0.,24.0,2.,24.0,0.,24.0
1979-07-14 21:18:58.560 ,5,0,1.,24.0,1.,24.0,4.,24.0,0.,24.0
1979-07-14 21:19:22.560 ,4,1,0.,24.0,0.,24.0,3.,24.0,0.,24.0
1979-07-14 21:19:46.560 ,4,0,1.,24.0,1.,24.0,7.,24.0,0.,24.0
1979-07-14 21:20:10.560 ,3,1,0.,24.0,1.,24.0,3.,24.0,0.,24.0
1979-07-14 21:20:34.560 ,3,0,0.,24.0,0.,24.0,4.,24.0,0.,24.0
1979-07-14 21:20:58.560 ,2,1,1.,24.0,0.,24.0,1.,24.0,0.,24.0
1979-07-14 21:21:22.560 ,2,0,1.,24.0,1.,24.0,5.,24.0,0.,24.0
1979-07-14 21:21:46.560 ,1,1,1.,24.0,1.,24.0,3.,24.0,0.,24.0
1979-07-14 21:22:10.560 ,1,0,0.,24.0,1.,24.0,9.,24.0,0.,24.0
1979-07-14 21:22:34.560 ,0,1,1.,24.0,0.,24.0,2.,24.0,0.,24.0
1979-07-14 21:22:58.560 ,0,0,1.,24.0,1.,24.0,6.,24.0,0.,24.0
1979-07-14 21:23:22.560 ,0,1,1.,24.0,1.,24.0,2.,24.0,0.,24.0
1979-07-14 21:23:46.560 ,0,0,0.,24.0,0.,24.0,5.,24.0,0.,24.0
1979-07-14 21:24:10.560 ,1,1,1.,24.0,0.,24.0,6.,24.0,0.,24.0
1979-07-14 21:24:34.560 ,1,0,0.,24.0,0.,24.0,0.,24.0,0.,24.0
1979-07-14 21:24:58.560 ,2,1,1.,24.0,1.,24.0,5.,24.0,0.,24.0
1979-07-14 21:25:22.560 ,2,0,0.,24.0,0.,24.0,3.,24.0,0.,24.0
1979-07-14 21:25:46.560 ,3,1,1.,24.0,0.,24.0,4.,24.0,0.,24.0
1979-07-14 21:26:10.560 ,3,0,3.,24.0,0.,24.0,4.,24.0,0.,24.0
1979-07-14 21:26:34.560 ,4,1,1.,24.0,0.,24.0,1.,24.0,0.,24.0
1979-07-14 21:26:58.560 ,4,0,3.,24.0,0.,24.0,5.,24.0,0.,24.0
1979-07-14 21:27:22.560 ,5,1,0.,24.0,1.,24.0,7.,24.0,0.,24.0
1979-07-14 21:27:46.560 ,5,0,1.,24.0,0.,24.0,6.,24.0,0.,24.0
1979-07-14 21:28:10.560 ,6,1,3.,24.0,0.,24.0,5.,24.0,0.,24.0
1979-07-14 21:28:34.560 ,6,0,1.,24.0,0.,24.0,6.,24.0,0.,24.0
1979-07-14 21:28:58.560 ,7,1,7.,24.0,0.,24.0,3.,24.0,0.,24.0
1979-07-14 21:29:22.560 ,7,0,36.,24.0,0.,24.0,6.,24.0,0.,24.0
1979-07-14 21:29:46.560 ,7,1,22.,24.0,0.,24.0,3.,24.0,0.,24.0
1979-07-14 21:30:10.560 ,7,0,30.,24.0,0.,24.0,1.,24.0,0.,24.0
1979-07-14 21:31:22.560 ,0,0,0.,24.0,1.,24.0,5.,24.0,0.,24.0
1979-07-14 21:31:46.560 ,0,0,1.,24.0,0.,24.0,6.,24.0,0.,24.0
1979-07-14 21:32:10.560 ,4,1,2.,24.0,0.,24.0,3.,24.0,0.,24.0
1979-07-14 21:32:34.560 ,4,0,0.,24.0,2.,24.0,2.,24.0,0.,24.0
1979-07-14 21:32:58.560 ,3,1,1.,24.0,0.,24.0,0.,24.0,0.,24.0
1979-07-14 21:33:22.560 ,3,0,3.,24.0,0.,24.0,1.,24.0,0.,24.0
1979-07-14 21:33:46.560 ,2,1,1.,24.0,1.,24.0,7.,24.0,0.,24.0
1979-07-14 21:34:10.550 ,2,0,1.,24.0,1.,24.0,8.,24.0,0.,24.0
1979-07-14 21:34:34.550 ,1,1,2.,24.0,1.,24.0,3.,24.0,0.,24.0
1979-07-14 21:34:58.550 ,1,0,1.,24.0,0.,24.0,3.,24.0,0.,24.0
1979-07-14 21:35:22.550 ,0,1,1.,24.0,0.,24.0,4.,24.0,0.,24.0
1979-07-14 21:35:46.550 ,0,0,0.,24.0,0.,24.0,6.,24.0,0.,24.0
1979-07-14 21:36:10.550 ,0,1,1.,24.0,0.,24.0,3.,24.0,0.,24.0
1979-07-14 21:36:34.550 ,0,0,0.,24.0,0.,24.0,5.,24.0,0.,24.0
1979-07-14 21:36:58.550 ,1,1,2.,24.0,0.,24.0,6.,24.0,0.,24.0
1979-07-14 21:37:22.550 ,1,0,2.,24.0,4.,24.0,8.,24.0,0.,24.0
1979-07-14 21:37:46.550 ,2,1,0.,24.0,0.,24.0,2.,24.0,0.,24.0
1979-07-14 21:38:10.550 ,2,0,0.,24.0,0.,24.0,6.,24.0,0.,24.0
1979-07-14 21:38:34.550 ,3,1,0.,24.0,1.,24.0,2.,24.0,0.,24.0
1979-07-14 21:38:58.550 ,3,0,0.,24.0,1.,24.0,0.,24.0,0.,24.0
1979-07-14 21:39:22.550 ,4,1,0.,24.0,0.,24.0,6.,24.0,0.,24.0
1979-07-14 21:39:46.550 ,4,0,0.,24.0,0.,24.0,7.,24.0,0.,24.0
1979-07-14 21:40:10.550 ,5,1,2.,24.0,1.,24.0,8.,24.0,0.,24.0
1979-07-14 21:40:34.550 ,5,0,2.,24.0,0.,24.0,5.,24.0,0.,24.0
1979-07-14 21:40:58.550 ,6,1,1.,24.0,1.,24.0,5.,24.0,0.,24.0
1979-07-14 21:41:22.550 ,6,0,2.,24.0,1.,24.0,0.,24.0,0.,24.0
1979-07-14 21:41:46.550 ,7,1,13.,24.0,1.,24.0,6.,24.0,0.,24.0
1979-07-14 21:42:10.550 ,7,0,32.,24.0,0.,24.0,3.,24.0,0.,24.0
1979-07-14 21:42:34.550 ,7,1,21.,24.0,0.,24.0,9.,24.0,0.,24.0
1979-07-14 21:42:58.550 ,7,0,27.,24.0,0.,24.0,8.,24.0,0.,24.0
1979-07-14 21:43:22.550 ,6,1,23.,24.0,0.,24.0,4.,24.0,0.,24.0
1979-07-14 21:43:46.550 ,6,0,0.,24.0,0.,24.0,10.,24.0,0.,24.0
1979-07-14 21:44:10.550 ,5,1,3.,24.0,0.,24.0,4.,24.0,0.,24.0
1979-07-14 21:44:34.550 ,5,0,2.,24.0,0.,24.0,6.,24.0,0.,24.0
1979-07-14 21:44:58.550 ,4,1,3.,24.0,0.,24.0,5.,24.0,0.,24.0
1979-07-14 21:45:22.550 ,4,0,2.,24.0,0.,24.0,6.,24.0,0.,24.0
1979-07-14 21:45:46.550 ,3,1,0.,24.0,1.,24.0,5.,24.0,0.,24.0
1979-07-14 21:46:10.550 ,3,0,1.,24.0,2.,24.0,0.,24.0,0.,24.0
1979-07-14 21:46:34.550 ,2,1,1.,24.0,0.,24.0,2.,24.0,0.,24.0
1979-07-14 21:46:58.550 ,2,0,1.,24.0,0.,24.0,3.,24.0,0.,24.0
1979-07-14 21:47:22.550 ,1,1,1.,24.0,0.,24.0,3.,24.0,0.,24.0
1979-07-14 21:47:46.550 ,1,0,1.,24.0,1.,24.0,4.,24.0,0.,24.0
1979-07-14 21:48:10.550 ,0,1,0.,24.0,0.,24.0,2.,24.0,0.,24.0
1979-07-14 21:48:34.550 ,0,0,0.,24.0,0.,24.0,6.,24.0,0.,24.0
1979-07-14 21:48:58.550 ,0,1,2.,24.0,0.,24.0,5.,24.0,0.,24.0
1979-07-14 21:49:22.550 ,0,0,1.,24.0,1.,24.0,6.,24.0,0.,24.0
1979-07-14 21:49:46.550 ,1,1,0.,24.0,0.,24.0,5.,24.0,0.,24.0
1979-07-14 21:50:10.550 ,1,0,1.,24.0,0.,24.0,3.,24.0,0.,24.0
1979-07-14 21:50:34.550 ,2,1,1.,24.0,0.,24.0,3.,24.0,0.,24.0
1979-07-14 21:50:58.550 ,2,0,0.,24.0,0.,24.0,3.,24.0,0.,24.0
1979-07-14 21:51:22.550 ,3,1,0.,24.0,0.,24.0,3.,24.0,0.,24.0
1979-07-14 21:51:46.550 ,3,0,2.,24.0,0.,24.0,4.,24.0,0.,24.0
1979-07-14 21:52:10.550 ,4,1,3.,24.0,0.,24.0,3.,24.0,0.,24.0
1979-07-14 21:52:34.550 ,4,0,2.,24.0,0.,24.0,7.,24.0,0.,24.0
1979-07-14 21:52:58.550 ,5,1,1.,24.0,0.,24.0,7.,24.0,0.,24.0
1979-07-14 21:53:22.550 ,5,0,1.,24.0,1.,24.0,5.,24.0,0.,24.0
1979-07-14 21:53:46.550 ,6,1,1.,24.0,0.,24.0,6.,24.0,0.,24.0
1979-07-14 21:54:10.550 ,6,0,1.,24.0,0.,24.0,5.,24.0,0.,24.0
1979-07-14 21:54:34.550 ,7,1,3.,24.0,1.,24.0,8.,24.0,0.,24.0
1979-07-14 21:54:58.550 ,7,0,23.,24.0,0.,24.0,8.,24.0,0.,24.0
1979-07-14 21:55:22.550 ,7,1,40.,24.0,0.,24.0,12.,24.0,0.,24.0
1979-07-14 21:55:46.550 ,7,0,31.,24.0,0.,24.0,6.,24.0,0.,24.0
1979-07-14 21:56:10.550 ,6,1,21.,24.0,0.,24.0,6.,24.0,0.,24.0
1979-07-14 21:56:34.550 ,6,0,2.,24.0,0.,24.0,4.,24.0,0.,24.0
1979-07-14 21:56:58.550 ,5,1,1.,24.0,0.,24.0,4.,24.0,0.,24.0
1979-07-14 21:57:22.550 ,5,0,1.,24.0,0.,24.0,4.,24.0,0.,24.0
1979-07-14 21:57:46.550 ,4,1,1.,24.0,0.,24.0,4.,24.0,0.,24.0
1979-07-14 21:58:10.550 ,4,0,1.,24.0,0.,24.0,5.,24.0,0.,24.0
1979-07-14 21:58:34.550 ,3,1,0.,24.0,0.,24.0,3.,24.0,0.,24.0
1979-07-14 21:58:58.550 ,3,0,1.,24.0,2.,24.0,0.,24.0,0.,24.0
1979-07-14 21:59:22.550 ,2,1,1.,24.0,0.,24.0,4.,24.0,0.,24.0
1979-07-14 21:59:46.550 ,2,0,0.,24.0,0.,24.0,5.,24.0,0.,24.0
1979-07-14 22:00:10.550 ,1,1,0.,24.0,3.,24.0,6.,24.0,0.,24.0
1979-07-14 22:00:34.550 ,1,0,1.,24.0,1.,24.0,13.,24.0,0.,24.0
1979-07-14 22:00:58.550 ,0,1,0.,24.0,0.,24.0,2.,24.0,0.,24.0
1979-07-14 22:01:22.550 ,0,0,0.,24.0,0.,24.0,3.,24.0,0.,24.0
1979-07-14 22:01:46.550 ,0,1,0.,24.0,1.,24.0,4.,24.0,0.,24.0
1979-07-14 22:02:10.550 ,0,0,1.,24.0,0.,24.0,5.,24.0,0.,24.0
1979-07-14 22:02:34.550 ,1,1,0.,24.0,0.,24.0,4.,24.0,0.,24.0
1979-07-14 22:02:58.550 ,1,0,1.,24.0,0.,24.0,7.,24.0,0.,24.0
1979-07-14 22:03:22.550 ,2,1,0.,24.0,0.,24.0,5.,24.0,0.,24.0
1979-07-14 22:03:46.550 ,2,0,2.,24.0,0.,24.0,4.,24.0,0.,24.0
1979-07-14 22:04:10.550 ,3,1,0.,24.0,2.,24.0,0.,24.0,0.,24.0
1979-07-14 22:04:34.550 ,3,0,1.,24.0,0.,24.0,2.,24.0,0.,24.0
1979-07-14 22:04:58.550 ,4,1,0.,24.0,1.,24.0,1.,24.0,0.,24.0
1979-07-14 22:05:22.550 ,4,0,0.,24.0,0.,24.0,4.,24.0,0.,24.0
1979-07-14 22:05:46.550 ,5,1,1.,24.0,2.,24.0,5.,24.0,0.,24.0
1979-07-14 22:06:10.550 ,5,0,2.,24.0,2.,24.0,3.,24.0,0.,24.0
1979-07-14 22:06:34.550 ,6,1,0.,24.0,3.,24.0,5.,24.0,0.,24.0
1979-07-14 22:06:58.550 ,6,0,1.,24.0,1.,24.0,3.,24.0,0.,24.0
1979-07-14 22:07:22.550 ,7,1,6.,24.0,0.,24.0,4.,24.0,0.,24.0
1979-07-14 22:07:46.550 ,7,0,43.,24.0,0.,24.0,5.,24.0,0.,24.0
1979-07-14 22:08:10.550 ,7,1,35.,24.0,0.,24.0,4.,24.0,0.,24.0
1979-07-14 22:08:34.550 ,7,0,27.,24.0,0.,24.0,4.,24.0,0.,24.0
1979-07-14 22:08:58.550 ,6,1,29.,24.0,0.,24.0,5.,24.0,0.,24.0
1979-07-14 22:09:22.550 ,6,0,0.,24.0,2.,24.0,8.,24.0,0.,24.0
1979-07-14 22:09:46.550 ,5,1,4.,24.0,0.,24.0,4.,24.0,0.,24.0
1979-07-14 22:10:10.550 ,5,0,0.,24.0,0.,24.0,2.,24.0,0.,24.0
1979-07-14 22:10:34.550 ,4,1,0.,24.0,1.,24.0,5.,24.0,0.,24.0
1979-07-14 22:10:58.550 ,4,0,1.,24.0,1.,24.0,2.,24.0,0.,24.0
1979-07-14 22:11:22.550 ,3,1,2.,24.0,0.,24.0,0.,24.0,0.,24.0
1979-07-14 22:11:46.550 ,3,0,0.,24.0,2.,24.0,7.,24.0,0.,24.0
1979-07-14 22:12:10.550 ,2,1,1.,24.0,0.,24.0,2.,24.0,0.,24.0
1979-07-14 22:12:34.550 ,2,0,1.,24.0,0.,24.0,2.,24.0,0.,24.0
1979-07-14 22:12:58.550 ,1,1,0.,24.0,0.,24.0,1.,24.0,0.,24.0
1979-07-14 22:13:22.550 ,1,0,1.,24.0,0.,24.0,3.,24.0,0.,24.0
1979-07-14 22:13:46.550 ,0,1,0.,24.0,0.,24.0,6.,24.0,0.,24.0
1979-07-14 22:14:10.550 ,0,0,1.,24.0,0.,24.0,5.,24.0,0.,24.0
1979-07-14 22:14:34.550 ,0,1,0.,24.0,0.,24.0,4.,24.0,0.,24.0
1979-07-14 22:14:58.550 ,0,0,2.,24.0,1.,24.0,7.,24.0,0.,24.0
1979-07-14 22:15:22.550 ,1,1,0.,24.0,0.,24.0,2.,24.0,0.,24.0
1979-07-14 22:15:46.550 ,1,0,2.,24.0,1.,24.0,9.,24.0,0.,24.0
1979-07-14 22:16:10.550 ,2,1,0.,24.0,0.,24.0,5.,24.0,0.,24.0
1979-07-14 22:16:34.550 ,2,0,1.,24.0,0.,24.0,0.,24.0,0.,24.0
1979-07-14 22:16:58.550 ,3,1,1.,24.0,0.,24.0,1.,24.0,0.,24.0
1979-07-14 22:17:22.550 ,3,0,1.,24.0,1.,24.0,2.,24.0,0.,24.0
1979-07-14 22:17:46.550 ,4,1,1.,24.0,1.,24.0,2.,24.0,0.,24.0
1979-07-14 22:18:10.550 ,4,0,0.,24.0,1.,24.0,4.,24.0,0.,24.0
1979-07-14 22:19:22.550 ,0,0,1.,24.0,0.,24.0,2.,24.0,0.,24.0
1979-07-14 22:19:46.550 ,0,0,1.,24.0,1.,24.0,2.,24.0,0.,24.0
1979-07-14 22:20:10.550 ,7,1,7.,24.0,0.,24.0,3.,24.0,0.,24.0
1979-07-14 22:20:34.550 ,7,0,33.,24.0,0.,24.0,1.,24.0,0.,24.0
1979-07-14 22:20:58.550 ,7,1,32.,24.0,0.,24.0,9.,24.0,0.,24.0
1979-07-14 22:21:22.550 ,7,0,31.,24.0,0.,24.0,4.,24.0,0.,24.0
1979-07-14 22:21:46.550 ,6,1,17.,24.0,1.,24.0,3.,24.0,0.,24.0
1979-07-14 22:22:10.550 ,6,0,1.,24.0,1.,24.0,5.,24.0,0.,24.0
1979-07-14 22:22:34.550 ,5,1,0.,24.0,0.,24.0,3.,24.0,0.,24.0
1979-07-14 22:22:58.550 ,5,0,1.,24.0,0.,24.0,5.,24.0,0.,24.0
1979-07-14 22:23:22.550 ,4,1,4.,24.0,1.,24.0,3.,24.0,0.,24.0
1979-07-14 22:23:46.550 ,4,0,0.,24.0,0.,24.0,5.,24.0,0.,24.0
1979-07-14 22:24:10.550 ,3,1,1.,24.0,0.,24.0,2.,24.0,0.,24.0
1979-07-14 22:24:34.550 ,3,0,1.,24.0,0.,24.0,4.,24.0,0.,24.0
1979-07-14 22:24:58.550 ,2,1,1.,24.0,0.,24.0,3.,24.0,0.,24.0
1979-07-14 22:25:22.550 ,2,0,0.,24.0,0.,24.0,5.,24.0,0.,24.0
1979-07-14 22:25:46.550 ,1,1,1.,24.0,0.,24.0,3.,24.0,0.,24.0
1979-07-14 22:26:10.550 ,1,0,1.,24.0,0.,24.0,7.,24.0,0.,24.0
1979-07-14 22:26:34.550 ,0,1,0.,24.0,0.,24.0,5.,24.0,0.,24.0
1979-07-14 22:26:58.550 ,0,0,0.,24.0,1.,24.0,1.,24.0,0.,24.0
1979-07-14 22:27:22.550 ,0,1,0.,24.0,0.,24.0,2.,24.0,0.,24.0
1979-07-14 22:27:46.550 ,0,0,0.,24.0,1.,24.0,3.,24.0,0.,24.0
1979-07-14 22:28:10.550 ,1,1,0.,24.0,0.,24.0,4.,24.0,0.,24.0
1979-07-14 22:28:34.550 ,1,0,1.,24.0,1.,24.0,2.,24.0,0.,24.0
1979-07-14 22:28:58.550 ,2,1,0.,24.0,0.,24.0,3.,24.0,0.,24.0
1979-07-14 22:30:34.550 ,0,0,0.,24.0,0.,24.0,0.,24.0,0.,24.0
1979-07-14 22:30:58.550 ,0,0,0.,24.0,1.,24.0,3.,24.0,0.,24.0
1979-07-14 22:30:58.550 ,0,0,0.,24.0,1.,24.0,3.,24.0,0.,24.0
1979-07-14 23:01:22.550 ,0,0,1.,24.0,0.,24.0,10.,24.0,0.,24.0
1979-07-14 23:01:46.550 ,0,1,1.,24.0,1.,24.0,11.,24.0,0.,24.0
1979-07-14 23:02:10.550 ,0,0,1.,24.0,0.,24.0,5.,24.0,0.,24.0
1979-07-14 23:02:34.550 ,0,1,0.,24.0,0.,24.0,12.,24.0,0.,24.0
1979-07-14 23:02:58.550 ,0,0,1.,24.0,0.,24.0,11.,24.0,0.,24.0
1979-07-14 23:03:22.550 ,1,1,1.,24.0,0.,24.0,6.,24.0,0.,24.0
1979-07-14 23:03:46.550 ,1,0,0.,24.0,1.,24.0,9.,24.0,0.,24.0
1979-07-14 23:04:10.550 ,2,1,1.,24.0,1.,24.0,8.,24.0,0.,24.0
1979-07-14 23:04:34.550 ,2,0,5.,24.0,0.,24.0,8.,24.0,0.,24.0
1979-07-14 23:04:58.550 ,3,1,8.,24.0,1.,24.0,8.,24.0,0.,24.0
1979-07-14 23:05:22.550 ,3,0,4.,24.0,0.,24.0,7.,24.0,0.,24.0
1979-07-14 23:05:46.550 ,4,1,6.,24.0,1.,24.0,8.,24.0,0.,24.0
1979-07-14 23:06:10.550 ,4,0,3.,24.0,0.,24.0,10.,24.0,0.,24.0
1979-07-14 23:07:22.550 ,0,0,0.,24.0,1.,24.0,7.,24.0,0.,24.0
1979-07-14 23:07:46.550 ,0,0,0.,24.0,0.,24.0,5.,24.0,0.,24.0
1979-07-14 23:10:34.550 ,0,0,1.,24.0,0.,24.0,10.,24.0,0.,24.0
1979-07-14 23:10:58.550 ,0,0,4.,24.0,0.,24.0,6.,24.0,0.,24.0
1979-07-14 23:11:22.550 ,4,1,0.,24.0,0.,24.0,11.,24.0,0.,24.0
1979-07-14 23:11:46.550 ,4,0,0.,24.0,0.,24.0,6.,24.0,0.,24.0
1979-07-14 23:12:10.550 ,3,1,1.,24.0,0.,24.0,6.,24.0,0.,24.0
1979-07-14 23:12:34.550 ,3,0,0.,24.0,0.,24.0,6.,24.0,0.,24.0
1979-07-14 23:12:58.550 ,2,1,1.,24.0,0.,24.0,4.,24.0,0.,24.0
1979-07-14 23:13:22.550 ,2,0,4.,24.0,0.,24.0,6.,24.0,0.,24.0
1979-07-14 23:13:46.550 ,1,1,1.,24.0,0.,24.0,5.,24.0,0.,24.0
1979-07-14 23:14:10.550 ,1,0,1.,24.0,0.,24.0,3.,24.0,0.,24.0
1979-07-14 23:14:34.550 ,0,1,0.,24.0,0.,24.0,10.,24.0,0.,24.0
1979-07-14 23:14:58.550 ,0,0,0.,24.0,0.,24.0,7.,24.0,0.,24.0
1979-07-14 23:15:22.550 ,0,1,0.,24.0,0.,24.0,5.,24.0,0.,24.0
1979-07-14 23:15:46.550 ,0,0,0.,24.0,0.,24.0,7.,24.0,0.,24.0
1979-07-14 23:16:10.550 ,1,1,0.,24.0,0.,24.0,8.,24.0,0.,24.0
1979-07-14 23:16:34.550 ,1,0,1.,24.0,0.,24.0,5.,24.0,0.,24.0
1979-07-14 23:16:58.550 ,2,1,1.,24.0,0.,24.0,1.,24.0,0.,24.0
1979-07-14 23:17:22.550 ,2,0,0.,24.0,0.,24.0,3.,24.0,0.,24.0
1979-07-14 23:17:46.550 ,3,1,1.,24.0,0.,24.0,1.,24.0,0.,24.0
1979-07-14 23:18:10.550 ,3,0,1.,24.0,0.,24.0,3.,24.0,0.,24.0
1979-07-14 23:18:34.550 ,4,1,1.,24.0,0.,24.0,11.,24.0,0.,24.0
1979-07-14 23:18:58.550 ,4,0,5.,24.0,0.,24.0,5.,24.0,0.,24.0
1979-07-14 23:19:22.550 ,5,1,2.,24.0,0.,24.0,5.,24.0,0.,24.0
1979-07-14 23:19:46.550 ,5,0,9.,24.0,1.,24.0,12.,24.0,0.,24.0
1979-07-14 23:20:10.550 ,6,1,5.,24.0,0.,24.0,6.,24.0,0.,24.0
1979-07-14 23:20:34.550 ,6,0,3.,24.0,2.,24.0,7.,24.0,0.,24.0
1979-07-14 23:20:58.550 ,7,1,12.,24.0,0.,24.0,12.,24.0,0.,24.0
1979-07-14 23:21:22.550 ,7,0,23.,24.0,0.,24.0,8.,24.0,0.,24.0
1979-07-14 23:21:46.550 ,7,1,28.,24.0,0.,24.0,6.,24.0,0.,24.0
1979-07-14 23:22:10.550 ,7,0,22.,24.0,0.,24.0,9.,24.0,0.,24.0
1979-07-14 23:22:34.550 ,6,1,21.,24.0,0.,24.0,3.,24.0,0.,24.0
1979-07-14 23:22:58.550 ,6,0,3.,24.0,0.,24.0,8.,24.0,0.,24.0
1979-07-14 23:23:22.550 ,5,1,6.,24.0,0.,24.0,8.,24.0,0.,24.0
1979-07-14 23:23:46.550 ,5,0,8.,24.0,1.,24.0,8.,24.0,0.,24.0
1979-07-14 23:24:10.550 ,4,1,6.,24.0,0.,24.0,11.,24.0,0.,24.0
1979-07-14 23:24:34.550 ,4,0,3.,24.0,1.,24.0,9.,24.0,0.,24.0
1979-07-14 23:24:58.550 ,3,1,7.,24.0,0.,24.0,6.,24.0,0.,24.0
1979-07-14 23:25:22.550 ,3,0,3.,24.0,1.,24.0,5.,24.0,0.,24.0
1979-07-14 23:25:46.550 ,2,1,0.,24.0,1.,24.0,1.,24.0,0.,24.0
1979-07-14 23:26:10.550 ,2,0,3.,24.0,1.,24.0,3.,24.0,0.,24.0
1979-07-14 23:26:34.550 ,1,1,2.,24.0,0.,24.0,7.,24.0,0.,24.0
1979-07-14 23:26:58.550 ,1,0,1.,24.0,0.,24.0,3.,24.0,0.,24.0
1979-07-14 23:27:22.550 ,0,1,0.,24.0,2.,24.0,12.,24.0,0.,24.0
1979-07-14 23:27:46.550 ,0,0,0.,24.0,0.,24.0,8.,24.0,0.,24.0
1979-07-14 23:28:10.550 ,0,1,0.,24.0,0.,24.0,9.,24.0,0.,24.0
1979-07-14 23:28:34.550 ,0,0,0.,24.0,0.,24.0,5.,24.0,0.,24.0
1979-07-14 23:28:58.550 ,1,1,0.,24.0,0.,24.0,1.,24.0,0.,24.0
1979-07-14 23:29:22.550 ,1,0,1.,24.0,0.,24.0,4.,24.0,0.,24.0
1979-07-14 23:29:46.550 ,2,1,1.,24.0,0.,24.0,4.,24.0,0.,24.0
1979-07-14 23:30:10.550 ,2,0,1.,24.0,1.,24.0,7.,24.0,0.,24.0
1979-07-14 23:30:34.550 ,3,1,1.,24.0,0.,24.0,7.,24.0,0.,24.0
1979-07-14 23:30:58.550 ,3,0,0.,24.0,0.,24.0,4.,24.0,0.,24.0
1979-07-14 23:31:22.550 ,4,1,3.,24.0,0.,24.0,6.,24.0,0.,24.0
1979-07-14 23:31:46.550 ,4,0,2.,24.0,0.,24.0,1.,24.0,0.,24.0
1979-07-14 23:32:10.550 ,5,1,4.,24.0,1.,24.0,7.,24.0,0.,24.0
1979-07-14 23:32:34.550 ,5,0,5.,24.0,3.,24.0,5.,24.0,0.,24.0
1979-07-14 23:32:58.550 ,6,1,4.,24.0,2.,24.0,3.,24.0,0.,24.0
1979-07-14 23:33:22.550 ,6,0,1.,24.0,1.,24.0,2.,24.0,0.,24.0
1979-07-14 23:33:46.550 ,7,1,8.,24.0,2.,24.0,4.,24.0,0.,24.0
1979-07-14 23:34:10.550 ,7,0,31.,24.0,0.,24.0,6.,24.0,0.,24.0
1979-07-14 23:34:34.550 ,7,1,36.,24.0,0.,24.0,9.,24.0,0.,24.0
1979-07-14 23:34:58.550 ,7,0,36.,24.0,0.,24.0,6.,24.0,0.,24.0
1979-07-14 23:35:22.550 ,6,1,20.,24.0,0.,24.0,5.,24.0,0.,24.0
1979-07-14 23:35:46.550 ,6,0,1.,24.0,0.,24.0,7.,24.0,0.,24.0
1979-07-14 23:36:10.550 ,5,1,1.,24.0,2.,24.0,6.,24.0,0.,24.0
1979-07-14 23:36:34.550 ,5,0,3.,24.0,0.,24.0,6.,24.0,0.,24.0
1979-07-14 23:36:58.550 ,4,1,2.,24.0,1.,24.0,3.,24.0,0.,24.0
1979-07-14 23:37:22.550 ,4,0,1.,24.0,0.,24.0,8.,24.0,0.,24.0
1979-07-14 23:38:34.550 ,0,0,0.,24.0,0.,24.0,2.,24.0,0.,24.0
1979-07-14 23:38:58.550 ,0,0,0.,24.0,0.,24.0,1.,24.0,0.,24.0
1979-07-14 23:39:22.550 ,1,1,0.,24.0,0.,24.0,4.,24.0,0.,24.0
1979-07-14 23:39:46.550 ,1,0,3.,24.0,0.,24.0,4.,24.0,0.,24.0
1979-07-14 23:40:10.550 ,0,1,1.,24.0,0.,24.0,3.,24.0,0.,24.0
1979-07-14 23:40:34.550 ,0,0,0.,24.0,0.,24.0,3.,24.0,0.,24.0
1979-07-14 23:40:58.550 ,0,1,0.,24.0,0.,24.0,5.,24.0,0.,24.0
1979-07-14 23:41:22.550 ,0,0,0.,24.0,0.,24.0,6.,24.0,0.,24.0
1979-07-14 23:41:46.550 ,1,1,3.,24.0,0.,24.0,3.,24.0,0.,24.0
1979-07-14 23:42:10.550 ,1,0,0.,24.0,1.,24.0,2.,24.0,0.,24.0
1979-07-14 23:42:34.550 ,2,1,0.,24.0,0.,24.0,0.,24.0,0.,24.0
1979-07-14 23:42:58.550 ,2,0,1.,24.0,0.,24.0,3.,24.0,0.,24.0
1979-07-14 23:43:22.550 ,3,1,2.,24.0,0.,24.0,4.,24.0,0.,24.0
1979-07-14 23:43:46.550 ,3,0,0.,24.0,1.,24.0,3.,24.0,0.,24.0
1979-07-14 23:44:10.550 ,4,1,0.,24.0,0.,24.0,2.,24.0,0.,24.0
1979-07-14 23:44:34.550 ,4,0,0.,24.0,0.,24.0,6.,24.0,0.,24.0
1979-07-14 23:44:58.550 ,5,1,0.,24.0,1.,24.0,6.,24.0,0.,24.0
1979-07-14 23:45:22.550 ,5,0,2.,24.0,0.,24.0,1.,24.0,0.,24.0
1979-07-14 23:45:46.550 ,6,1,3.,24.0,0.,24.0,4.,24.0,0.,24.0
1979-07-14 23:46:10.550 ,6,0,2.,24.0,1.,24.0,8.,24.0,0.,24.0
1979-07-14 23:46:34.550 ,7,1,4.,24.0,0.,24.0,3.,24.0,0.,24.0
1979-07-14 23:46:58.550 ,7,0,33.,24.0,0.,24.0,2.,24.0,0.,24.0
1979-07-14 23:47:22.550 ,7,1,38.,24.0,0.,24.0,4.,24.0,0.,24.0
1979-07-14 23:47:46.550 ,7,0,28.,24.0,0.,24.0,2.,24.0,0.,24.0
1979-07-14 23:48:10.550 ,6,1,27.,24.0,0.,24.0,3.,24.0,0.,24.0
1979-07-14 23:48:34.550 ,6,0,3.,24.0,0.,24.0,5.,24.0,0.,24.0
1979-07-14 23:48:58.550 ,5,1,2.,24.0,0.,24.0,2.,24.0,0.,24.0
1979-07-14 23:49:22.550 ,5,0,1.,24.0,0.,24.0,9.,24.0,0.,24.0
1979-07-14 23:49:46.550 ,4,1,1.,24.0,0.,24.0,9.,24.0,0.,24.0
1979-07-14 23:50:10.550 ,4,0,2.,24.0,0.,24.0,6.,24.0,0.,24.0
1979-07-14 23:50:34.550 ,3,1,0.,24.0,0.,24.0,2.,24.0,0.,24.0
1979-07-14 23:50:58.550 ,3,0,1.,24.0,0.,24.0,2.,24.0,0.,24.0
1979-07-14 23:51:22.550 ,2,1,0.,24.0,0.,24.0,2.,24.0,0.,24.0
1979-07-14 23:51:46.550 ,2,0,0.,24.0,0.,24.0,2.,24.0,0.,24.0
1979-07-14 23:52:10.550 ,1,1,2.,24.0,0.,24.0,5.,24.0,0.,24.0
1979-07-14 23:52:34.550 ,1,0,0.,24.0,0.,24.0,3.,24.0,0.,24.0
1979-07-14 23:52:58.550 ,0,1,0.,24.0,1.,24.0,2.,24.0,0.,24.0
1979-07-14 23:53:22.550 ,0,0,0.,24.0,0.,24.0,1.,24.0,0.,24.0
1979-07-14 23:53:46.550 ,0,1,0.,24.0,1.,24.0,4.,24.0,0.,24.0
1979-07-14 23:54:10.550 ,0,0,0.,24.0,0.,24.0,2.,24.0,0.,24.0
1979-07-14 23:54:34.550 ,1,1,2.,24.0,0.,24.0,3.,24.0,0.,24.0
1979-07-14 23:54:58.550 ,1,0,0.,24.0,0.,24.0,3.,24.0,0.,24.0
1979-07-14 23:55:22.550 ,2,1,0.,24.0,0.,24.0,5.,24.0,0.,24.0
1979-07-14 23:55:46.550 ,2,0,0.,24.0,0.,24.0,5.,24.0,0.,24.0
1979-07-14 23:56:10.550 ,3,1,0.,24.0,0.,24.0,5.,24.0,0.,24.0
1979-07-14 23:56:34.550 ,3,0,2.,24.0,0.,24.0,3.,24.0,0.,24.0
1979-07-14 23:56:58.550 ,4,1,0.,24.0,0.,24.0,6.,24.0,0.,24.0
1979-07-14 23:57:22.550 ,4,0,2.,24.0,1.,24.0,3.,24.0,0.,24.0
1979-07-14 23:57:46.550 ,5,1,1.,24.0,1.,24.0,1.,24.0,0.,24.0
1979-07-14 23:58:10.550 ,5,0,0.,24.0,0.,24.0,6.,24.0,0.,24.0
1979-07-14 23:58:34.550 ,6,1,0.,24.0,1.,24.0,2.,24.0,0.,24.0
1979-07-14 23:58:58.550 ,6,0,0.,24.0,0.,24.0,3.,24.0,0.,24.0
1979-07-14 23:59:22.550 ,7,1,10.,24.0,2.,24.0,6.,24.0,0.,24.0
1979-07-14 23:59:46.550 ,7,0,25.,24.0,0.,24.0,5.,24.0,0.,24.0
1979-07-15 00:00:10.550 ,7,1,37.,24.0,0.,24.0,6.,24.0,0.,24.0
